IRIDIUM 920 [-]

Last updated on Wed Jun 28 2023 00:03:01 GMT+0000 (Coordinated Universal Time)

1 24871U 97034C 23177.92562196 .00000611 00000+0 18698-3 0 9997 2 24871 86.3995 158.6757 0009725 306.4758 53.5544 14.40221548362984

Satellite not in orbit

IRIDIUM 920 [-]